Total_Precipitation_Accumulation
2.16 2.35 2.73 2.99 3.15 3.28 3.50 3.77 4.21 4.60 4.73 4.55 4.48 4.46 4.23 3.93 3.55 3.38 3.47 3.52 3.30 3.34 3.73 3.41 3.78 3.85 4.07 4.22 4.16 4.38 4.30 4.08 4.20 4.15 3.57 2.94 2.54 2.47 2.30 2.32 2.53 2.46 2.52
2.20 2.43 2.76 2.90 2.86 3.04 3.32 3.75 4.22 4.55 4.45 4.57 4.80 4.79 4.60 3.94 3.58 3.44 3.42 3.32 3.16 3.12 3.23 3.76 3.72 3.84 4.06 4.12 4.07 4.14 3.93 3.66 4.02 4.31 4.14 3.41 2.96 2.52 2.08 2.31 2.33 2.46 2.75
1.87 2.01 2.21 2.37 2.61 3.03 3.49 3.83 4.14 4.27 4.27 4.49 4.66 4.39 4.20 3.73 3.58 3.56 3.43 3.25 3.20 3.17 3.29 3.55 3.64 3.71 3.61 3.86 4.06 3.87 3.81 3.69 3.74 3.99 4.21 3.73 3.13 2.64 2.32 2.20 2.25 2.61 2.86
1.75 1.87 1.90 2.20 2.59 3.03 3.62 4.03 4.05 4.11 3.96 4.09 4.24 4.10 3.76 3.51 3.40 3.38 3.15 3.02 2.94 2.93 3.04 3.20 3.40 3.56 3.48 3.66 3.54 3.59 3.75 3.77 3.59 3.73 3.67 3.57 3.36 3.19 2.76 2.36 2.26 2.49 2.59
1.67 1.90 1.85 2.04 2.32 2.74 3.15 3.57 3.92 3.96 3.76 3.70 3.76 3.91 3.74 3.46 3.24 3.14 3.05 2.99 2.95 2.76 2.74 2.95 3.20 3.36 3.25 3.22 3.42 3.72 3.66 3.56 3.52 3.64 3.67 3.84 3.67 3.34 3.17 2.78 2.54 2.40 2.16
1.67 1.83 2.08 2.14 2.29 2.55 2.90 3.20 3.42 3.38 3.31 3.25 3.29 3.42 3.50 3.46 3.22 3.02 3.05 3.00 2.86 2.70 2.63 2.73 3.07 3.17 3.10 3.07 3.17 3.26 3.30 3.34 3.52 3.52 3.42 3.63 3.66 3.50 3.52 3.12 2.77 2.49 2.04
1.81 1.85 2.03 2.15 2.25 2.36 2.54 2.69 2.76 2.79 2.75 2.78 2.75 2.75 2.90 2.98 2.87 2.78 2.85 2.85 2.74 2.62 2.61 2.60 2.75 2.68 2.68 2.78 3.01 3.04 2.99 3.05 3.18 3.15 3.18 3.17 3.09 3.20 3.34 3.28 2.83 2.45 1.96
1.62 1.73 1.81 1.75 1.77 1.83 1.97 2.12 2.20 2.21 2.18 2.25 2.34 2.36 2.57 2.59 2.60 2.73 2.63 2.66 2.60 2.57 2.52 2.45 2.40 2.32 2.34 2.40 2.74 2.84 2.79 2.87 2.89 2.81 3.06 2.91 2.76 2.93 2.95 3.03 3.13 2.85 2.51
1.32 1.34 1.37 1.42 1.54 1.58 1.65 1.78 1.87 1.87 1.80 1.86 2.03 2.11 2.18 2.31 2.41 2.52 2.42 2.29 2.31 2.20 2.27 2.26 2.18 2.12 2.22 2.36 2.47 2.48 2.48 2.60 2.58 2.65 2.72 2.54 2.55 2.65 2.68 2.84 3.10 3.16 2.93
1.15 1.19 1.18 1.22 1.25 1.31 1.42 1.58 1.68 1.82 1.81 1.77 1.83 1.82 1.93 2.03 2.20 2.28 2.17 2.18 2.26 2.21 2.13 2.07 1.99 1.99 2.05 2.12 2.26 2.21 2.27 2.29 2.28 2.44 2.50 2.45 2.43 2.57 2.53 2.57 2.79 3.00 3.06
0.93 1.03 0.99 1.01 1.07 1.14 1.25 1.40 1.68 1.84 1.77 1.62 1.69 1.80 1.78 1.87 1.96 2.01 1.94 2.04 2.14 2.28 2.25 2.17 2.11 1.97 1.91 1.98 2.07 1.95 2.06 2.09 2.09 2.08 2.15 2.18 2.33 2.48 2.45 2.50 2.56 2.82 3.11
0.74 0.86 0.91 0.86 0.91 0.96 1.07 1.25 1.48 1.64 1.66 1.61 1.64 1.77 1.83 1.81 1.77 1.74 1.77 1.83 1.87 1.94 1.95 1.92 1.91 1.91 1.99 2.08 2.00 1.93 1.95 2.03 2.00 2.07 2.21 2.11 2.26 2.42 2.36 2.47 2.49 2.66 2.98
0.82 0.79 0.89 0.93 0.89 0.87 0.99 1.18 1.25 1.45 1.65 1.65 1.65 1.75 1.70 1.66 1.71 1.84 1.90 1.88 1.89 1.91 1.87 1.86 1.85 1.87 2.04 2.17 2.13 2.10 2.16 2.19 2.07 2.15 2.18 2.06 2.18 2.25 2.25 2.32 2.38 2.56 2.77
0.85 0.81 0.81 0.81 0.74 0.75 0.85 1.05 1.15 1.29 1.46 1.60 1.70 1.81 1.79 1.80 1.90 2.01 2.09 2.03 1.95 1.97 2.02 1.99 1.93 1.95 1.91 1.95 2.09 2.22 2.23 2.19 2.10 2.09 2.00 1.88 1.87 1.96 2.11 2.11 2.24 2.46 2.66
0.75 0.78 0.74 0.66 0.64 0.66 0.76 0.95 1.11 1.25 1.38 1.62 1.77 1.87 1.92 1.92 1.95 1.96 2.04 2.04 1.94 1.90 2.08 2.07 2.02 2.02 1.92 1.82 1.92 2.03 1.97 2.01 1.98 1.93 1.75 1.55 1.58 1.66 1.73 1.69 2.02 2.33 2.46
0.75 0.69 0.70 0.71 0.71 0.66 0.68 0.75 0.92 1.11 1.28 1.50 1.65 1.71 1.84 1.95 1.94 1.89 1.93 1.93 1.96 2.01 2.04 1.98 1.99 1.91 1.64 1.70 1.67 1.63 1.66 1.73 1.76 1.80 1.77 1.60 1.47 1.40 1.42 1.40 1.56 1.89 2.05
0.98 0.96 0.88 0.88 0.78 0.68 0.70 0.74 0.82 1.01 1.23 1.39 1.49 1.62 1.77 1.85 1.85 1.78 1.84 1.94 1.97 1.95 1.85 1.78 1.79 1.76 1.69 1.55 1.37 1.33 1.44 1.60 1.67 1.71 1.73 1.48 1.34 1.39 1.26 1.33 1.41 1.44 1.53
0.77 0.91 0.98 0.98 0.94 0.84 0.87 0.91 0.96 1.09 1.26 1.42 1.51 1.58 1.69 1.73 1.75 1.72 1.69 1.77 1.81 1.81 1.82 1.71 1.71 1.79 1.69 1.59 1.34 1.23 1.20 1.39 1.45 1.43 1.44 1.45 1.44 1.36 1.41 1.39 1.39 1.30 1.31
0.80 0.85 0.91 0.97 1.10 1.13 1.10 1.15 1.25 1.34 1.33 1.39 1.51 1.61 1.71 1.75 1.76 1.79 1.76 1.80 1.81 1.76 1.76 1.75 1.78 1.78 1.72 1.66 1.42 1.31 1.29 1.41 1.44 1.46 1.46 1.53 1.59 1.58 1.44 1.38 1.40 1.41 1.44
0.76 0.84 0.86 0.87 1.05 1.17 1.20 1.24 1.30 1.37 1.34 1.39 1.50 1.62 1.73 1.88 1.86 1.93 1.96 1.92 1.82 1.75 1.77 1.83 1.81 1.73 1.68 1.55 1.34 1.31 1.34 1.52 1.63 1.75 1.74 1.63 1.50 1.48 1.36 1.36 1.45 1.42 1.41
0.80 0.73 0.79 1.00 1.12 1.17 1.25 1.32 1.30 1.35 1.38 1.52 1.60 1.70 1.78 1.85 1.84 1.92 1.98 1.98 1.92 1.92 1.81 1.71 1.73 1.73 1.63 1.43 1.17 1.15 1.20 1.43 1.66 1.70 1.63 1.49 1.32 1.19 1.16 1.16 1.27 1.34 1.28
0.89 0.91 1.02 1.13 1.17 1.21 1.36 1.49 1.53 1.47 1.57 1.68 1.66 1.74 1.85 1.71 1.71 1.94 2.03 2.05 2.08 2.05 1.94 1.82 1.76 1.78 1.72 1.44 1.24 1.19 1.20 1.35 1.59 1.75 1.68 1.52 1.34 1.18 1.12 0.99 1.05 1.12 1.07
0.91 0.99 1.10 1.12 1.15 1.21 1.36 1.60 1.63 1.57 1.58 1.67 1.72 1.73 1.78 1.91 1.99 2.05 2.10 2.07 2.04 2.03 2.01 1.97 1.87 1.85 1.87 1.79 1.50 1.36 1.32 1.40 1.46 1.60 1.74 1.61 1.34 1.14 1.06 1.03 0.96 0.87 0.87
0.88 0.94 1.06 1.08 1.19 1.28 1.43 1.69 1.73 1.69 1.71 1.79 1.87 1.86 1.83 1.89 2.07 2.25 2.25 2.18 2.04 2.08 2.12 2.03 2.01 2.02 2.05 1.95 1.72 1.55 1.44 1.45 1.43 1.45 1.47 1.42 1.28 1.11 1.12 1.14 1.01 0.89 0.95
0.90 0.99 1.14 1.26 1.29 1.34 1.42 1.58 1.74 1.88 1.96 1.99 1.98 1.99 2.02 2.06 2.13 2.14 2.12 2.11 2.06 2.01 2.05 2.04 2.03 2.03 1.99 1.88 1.75 1.63 1.56 1.55 1.49 1.41 1.43 1.40 1.39 1.26 1.20 1.25 1.24 1.20 1.23
1.18 1.19 1.22 1.34 1.40 1.43 1.50 1.60 1.81 2.09 2.29 2.26 2.17 2.16 2.15 2.16 2.13 2.14 1.98 1.85 1.78 1.72 1.63 1.67 1.69 1.65 1.63 1.58 1.50 1.48 1.46 1.42 1.40 1.29 1.39 1.51 1.50 1.45 1.43 1.42 1.40 1.40 1.36